Regional Weather Roundup
Issued by NWS State College, PA

Home | Current Version | Previous Version | Graphics & Text | Print | Product List | Glossary On
Versions: 1 2 3 4 5 6 7 8 9 10 11 12 13 14 15 16 17 18 19 20 21 22 23 24 25 26 27 28 29 30 31 32 33 34 35 36 37 38 39 40 41 42 43 44 45 46 47 48 49 50
000
ASUS41 KCTP 292210
RWRCTP

REGIONAL WEATHER ROUNDUP
NATIONAL WEATHER SERVICE STATE COLLEGE PA
600 PM EDT TUE JUL 29 2014

Note: "fair" indicates few or no clouds below 12,000 feet with no
significant weather and/or obstructions to visibility.

* = STATION THAT DOES NOT REPORT PRECIPITATION /E.G. RAIN...SNOW...ETC/
    THUNDER OR FOG.

PAZ002>004-007>009-013>016-020>023-029>032-292300-
WESTERN PENNSYLVANIA

CITY           SKY/WX    TMP DP  RH WIND       PRES   REMARKS
ERIE           SUNNY     68  49  50 W13       29.99S
MEADVILLE      MOSUNNY   65  49  56 W7        30.01R
FRANKLIN*      PTSUNNY   64  50  59 W7        30.02S
NEW CASTLE       N/A     66  52  60 CALM      30.02R
BEAVER COUNTY  CLOUDY    64  52  63 W5        30.02S
BUTLER*        PTSUNNY   64  48  55 W5        30.03S
PITTSBURGH INT PTSUNNY   67  51  56 N6        30.02R
PITTSBURGH     CLOUDY    65  50  58 NW3       30.01S
INDIANA*       CLOUDY    63  52  67 NW9       30.06R
LATROBE        PTSUNNY   66  54  63 SW12      30.03R
WASHINGTON CO* MOSUNNY   66  52  59 CALM      30.03S
$$

PAZ004>006-010>012-017>019-024>028-033>037-041-042-045-046-049>053-292300-
CENTRAL PENNSYLVANIA

CITY           SKY/WX    TMP DP  RH WIND       PRES   REMARKS
BRADFORD       CLOUDY    60  49  66 NW7       30.01R
DUBOIS         PTSUNNY   64  52  64 W8        30.00R
CLEARFIELD     PTSUNNY   64  51  62 VRB3      30.00R
JOHNSTOWN      CLOUDY    60  47  61 NW9       30.03R
ALTOONA        CLOUDY    63  50  62 W5        30.01R
STATE COLLEGE  CLOUDY    64  52  63 SW3       29.99R
WILLIAMSPORT   CLOUDY    69  50  50 W9        29.95R
SELINSGROVE    CLOUDY    69  53  56 VRB7      29.97R
FT INDIANTOWN  PTSUNNY   69  52  54 VRB5      29.96R
CAPITAL CITY   PTSUNNY   70  51  51 NW9       29.96R
HARRISBURG     PTSUNNY   71  52  50 NW9       29.95R
YORK           CLOUDY    68  56  65 NW5       29.96R
$$

PAZ038>040-043-044-047-048-054-055-060>062-067>071-292300-
EASTERN PENNSYLVANIA

CITY           SKY/WX    TMP DP  RH WIND       PRES   REMARKS
SCRANTON       CLOUDY    69  48  47 N5        29.96R
MOUNT POCONO   CLOUDY    63  49  60 N7        29.98R
ALLENTOWN      CLOUDY    72  51  47 N6        29.94R
QUAKERTOWN*    CLOUDY    72  54  53 N6        29.95R
READING        CLOUDY    72  52  49 W9        29.94R
LANCASTER      CLOUDY    69  53  56 NW9       29.95R
COATESVILLE    MOCLDY    68  68 100 N6        29.96R
POTTSTOWN      CLOUDY    70  54  56 NW5       29.96R
BLUE BELL      MOSUNNY   73  55  53 CALM      29.93R
DOYLESTOWN     CLOUDY    71  52  50 W3        29.93R
WILLOW GROVE   NOT AVBL
NORTH PHILA    CLOUDY    74  52  46 W7        29.95R
PHILADELPHIA   CLOUDY    74  53  48 NW5       29.94R
$$



USA.gov is the U.S. government's official web portal to all federal, state and local government web resources and services.